Flag for Cameroon Weather past 2 weeks in Bamenda, Cameroon

Now
82 °F

Partly sunny.


Feels Like: 89 °F
Forecast: 59 / 79 °F
Wind: 5 mph from West

Location: Douala Obs.

Current Time: Sep 4, 2015 at 11:51:57 AM

Latest Report: Sep 4, 2015 at 11:00 AM


Visibility: N/A

Pressure: 29.95 "Hg (26.02 "Hg at 1240m altitude)

Humidity: 79%

Dew point: 75 °F

Location of BamendaLocation

Historic Weather in Bamenda — Graph

°F

Bamenda temperature yesterday

Maximum temperature yesterday: 84 °F (at 1:00 PM)
Minimum temperature yesterday: 75 °F (at 12:00 AM)
Average temperature yesterday: 79 °F

Past Weeks' High & Low Weather Summary

 TemperatureHumidityPressure
High84 °F (Aug 21, 1:00 PM)100% (Aug 21, 3:00 AM)30.04 "Hg (Aug 21, 3:00 AM)
Low75 °F (Aug 21, 3:00 AM)66% (Aug 21, 2:00 PM)29.80 "Hg (Aug 22, 5:00 PM)
Average78 °F91%29.91 "Hg
* Reported Aug 20 10:00 AM — Sep 4 10:00 AM, Bamenda, Weather by CustomWeather, © 2015

Note: Actual official high and low records may vary slightly from our data, if they occured in-between our weather recording intervals... More about our weather records

Advertising

Bamenda weather history for previous 24 hours

 ConditionsComfort  
Time TempWeatherWind HumidityBarometerVisibility
10:00 AM
Fri, Sep 4
81 °FPartly sunny.5 mph89%29.95 "Hg5 mi
9:00 AM79 °FPartly sunny.1 mph94%29.95 "Hg5 mi
8:00 AM77 °FPartly sunny.1 mph100%29.92 "Hg4 mi
7:00 AM77 °FFog.No wind94%29.92 "Hg2 mi
6:00 AM77 °FFog.No wind94%29.92 "Hg1 mi
5:00 AM77 °FPassing clouds.No wind94%29.92 "HgN/A
4:00 AM77 °FPassing clouds.No wind100%29.89 "HgN/A
3:00 AM77 °FPassing clouds.1 mph100%29.92 "HgN/A
2:00 AM79 °FPassing clouds.2 mph94%29.92 "HgN/A
1:00 AM79 °FPassing clouds.No wind94%29.95 "HgN/A
12:00 AM79 °FPassing clouds.No wind94%29.95 "HgN/A
11:00 PM
Thu, Sep 3
79 °FPartly cloudy.No wind94%29.98 "Hg5 mi
10:00 PM79 °FPassing clouds.2 mph94%29.98 "HgN/A
9:00 PM79 °FPassing clouds.2 mph89%29.92 "HgN/A
8:00 PM79 °FPassing clouds.3 mph89%29.92 "HgN/A
7:00 PM79 °FPassing clouds.7 mph89%29.89 "Hg5 mi
6:00 PM81 °FPartly sunny.7 mph79%29.86 "HgN/A
5:00 PM82 °FPartly sunny.9 mph79%29.86 "HgN/A
4:00 PM84 °FPartly sunny.9 mph74%29.86 "HgN/A
3:00 PM84 °FPartly sunny.10 mph74%29.86 "HgN/A
2:00 PM84 °FPartly sunny.7 mph74%29.92 "HgN/A
1:00 PM84 °FPartly sunny.7 mph70%29.95 "HgN/A
12:00 PM82 °FPartly sunny.5 mph79%29.98 "HgN/A
11:00 AM81 °FPartly sunny.5 mph79%29.98 "HgN/A
Weather by CustomWeather, © 2015

See weather overviewHow to use our weather pages